SENTINEL-3A (41335 NORAD) Tracking and Keplerian Element Data

This shows tracking and keplerian element data for the satellite.

Feedback or suggestion? Click here.




ElementValue
Catalog41335
NameSENTINEL-3A
Epoch Orbit16575
Epoch Day114.21114852
Epoch Year2019
RAAN181.9841
Inclination98.628
Eccentricity0.0001065
Argument of Perigee89.8679
Mean Anonmoly270.2624
Mean Motion14.26735208
Decay Rate0
L11 41335U 16011A 19114.21114852 .00000000 00000-0 18241-4 0 9995
L22 41335 98.6280 181.9841 0001065 89.8679 270.2624 14.26735208165757

Live tracking and technical data element details for SENTINEL-3A (NORAD 41335). SENTINEL-3A can be tracked NOW for your location showing map with azimuth and elevation plus other details from your city location.

Track the satellite on the map from your city or location and see movement details for azimuth, elevation, latitude, longitude, range, height, and movement on the map or in text.







IsCatalogInMostPopularTable: catalog: 41335, numindb: 229
Update: records affected: 1



GetName: 41335 SENTINEL-3A

Hit Count: updated at: Wed, 24 Apr 2019 18:09:19 GMT